Location: Unspecified
(50.1700°N, 6.8600°E)
Time: 04:08:08
(UTC+00:00)

Genesis I - Pass Details

Date: 24 January 2019
Orbit: 476 x 550 km, 64.5° (Epoch: 19 February)

Event Time Altitude Azimuth Distance (km) Brightness Sun altitude
Exits shadow 04:50:31 75° 161° (SSE) 570 3.3 -23.2°
Maximum altitude 04:50:42 77° 130° (SE) 565 3.3 -23.2°
Drops below altitude 10° 04:54:50 10° 43° (NE) 1,833 6.5 -22.6°
Sets 04:57:03 0° 42° (NE) 2,733 7.4 -22.2°
